DW1253 Weather Reports


time (UTC)temp
F
wind
direction
speed
knots
gust
knots
rain 1hr
in
rain 24hr
in
rain mn
in
humidity
%
barometer
mb
20260506021338 48 63 0.0 0.9 0.07 0.58 0.58 95 1007.7
20260506020857 48 63 0.0 1.7 0.07 0.57 0.57 95 1007.6
20260506020407 48 63 0.9 1.7 0.07 0.57 0.57 95 1007.6
20260506015841 48 63 0.0 1.7 0.07 0.56 0.56 95 1007.7
20260506015340 48 63 0.0 2.6 0.07 0.55 0.55 95 1007.8
20260506014918 48 63 0.9 2.6 0.07 0.55 0.55 95 1007.7
20260506014353 48 63 1.7 2.6 0.07 0.54 0.54 95 1007.5
20260506013856 48 29 0.9 2.6 0.07 0.54 0.54 95 1007.9
20260506013403 48 29 0.9 2.6 0.08 0.54 0.54 95 1007.5
20260506012842 48 29 1.7 2.6 0.08 0.53 0.53 95 1007.5
20260506012345 48 263 0.0 2.6 0.08 0.53 0.53 95 1007.9
20260506011906 48 263 0.0 1.7 0.08 0.52 0.52 95 1008.0
20260506011357 48 263 0.0 1.7 0.08 0.51 0.51 95 1008.1
20260506010851 48 263 0.9 1.7 0.08 0.50 0.50 99 1008.0
20260506010350 48 263 0.0 0.9 0.09 0.50 0.50 95 1008.0
20260506005836 48 263 0.0 1.7 0.08 0.49 0.49 95 1007.9
20260506005355 48 263 0.0 0.9 0.07 0.48 0.48 95 1007.8
20260506004909 48 263 0.0 0.9 0.08 0.48 0.48 99 1007.8
20260506004415 48 263 0.0 1.7 0.08 0.47 0.47 95 1007.7
20260506003850 48 263 0.0 1.7 0.09 0.47 0.47 95 1007.6
20260506003353 48 263 0.0 1.7 0.09 0.46 0.46 95 1007.4
20260506002912 49 263 0.0 1.7 0.09 0.45 0.45 95 1007.5
20260506002343 49 263 0.0 0.9 0.09 0.45 0.45 95 1007.6
20260506001845 49 263 0.0 1.7 0.09 0.44 0.44 95 1007.6
20260506001343 49 263 0.0 1.7 0.09 0.43 0.43 95 1007.5
20260506000843 49 263 0.9 1.7 0.08 0.42 0.42 95 1007.2
20260506000335 49 263 0.0 1.7 0.08 0.41 0.41 95 1007.1
20260505235853 49 237 0.0 1.7 0.10 0.41 0.41 95 1007.3
20260505235352 49 237 0.9 1.7 0.12 0.41 0.41 95 1007.2
20260505234850 49 237 0.9 1.7 0.13 0.40 0.40 95 1007.1
20260505234345 50 237 0.9 2.6 0.13 0.39 0.39 95 1007.1
20260505233842 50 251 0.9 2.6 0.13 0.38 0.38 94 1007.5
20260505233335 50 223 0.0 1.7 0.14 0.37 0.37 94 1007.0
20260505232913 50 223 0.0 1.7 0.14 0.36 0.36 94 1007.0
20260505232345 50 223 0.9 1.7 0.15 0.35 0.35 94 1007.0
20260505231907 50 223 0.0 2.6 0.16 0.35 0.35 94 1007.0
20260505231344 50 223 0.9 2.6 0.17 0.34 0.34 94 1007.0
20260505230839 50 269 1.7 3.5 0.17 0.34 0.34 94 1006.9
20260505230344 51 329 1.7 3.5 0.18 0.33 0.33 94 1007.0
20260505225836 51 125 0.9 4.3 0.16 0.31 0.31 94 1007.0
20260505225417 51 125 1.7 4.3 0.15 0.29 0.29 94 1007.1
20260505224904 51 249 0.9 7.0 0.14 0.27 0.27 94 1006.9
20260505224337 51 186 2.6 7.0 0.15 0.26 0.26 94 1007.0
20260505223851 51 223 1.7 3.5 0.14 0.25 0.25 94 1007.1
20260505223348 51 273 1.7 3.5 0.13 0.23 0.23 94 1007.0
20260505222849 51 275 0.9 5.2 0.12 0.21 0.21 94 1006.9
20260505222342 51 132 2.6 5.2 0.13 0.20 0.20 94 1007.0
20260505221914 51 218 1.7 6.1 0.13 0.19 0.19 93 1007.0
20260505221347 51 224 2.6 6.1 0.12 0.17 0.17 93 1007.0
20260505220834 52 250 2.6 4.3 0.13 0.16 0.16 93 1006.9
20260505220354 52 124 2.6 6.1 0.13 0.15 0.15 93 1006.9
20260505215845 52 161 1.7 6.1 0.14 0.15 0.15 93 1007.0
20260505215344 52 239 2.6 4.3 0.12 0.13 0.13 93 1006.7
20260505214844 52 51 1.7 4.3 0.11 0.12 0.12 93 1006.5
20260505214340 52 238 1.7 4.3 0.11 0.11 0.11 92 1006.4
20260505213835 52 317 1.7 5.2 0.10 0.10 0.10 92 1006.3
20260505213340 52 18 1.7 8.7 0.09 0.09 0.09 92 1006.2
20260505212843 53 224 2.6 8.7 0.08 0.08 0.08 91 1006.3
20260505212347 53 281 2.6 6.1 0.07 0.07 0.07 91 1006.2
20260505211834 53 196 2.6 5.2 0.05 0.05 0.05 91 1006.2
20260505211351 53 221 2.6 5.2 0.05 0.05 0.05 90 1006.1
20260505210843 54 235 2.6 7.8 0.03 0.03 0.03 90 1006.0
20260505210340 54 224 2.6 7.8 0.02 0.02 0.02 89 1005.9
20260505205908 54 238 3.5 7.0 0.01 0.01 0.01 88 1005.8
20260505205346 55 194 1.7 7.8 0.01 0.01 0.01 87 1005.8
20260505204843 55 290 4.3 11.3 0.01 0.01 0.01 85 1005.7
20260505204340 56 218 4.3 12.2 0.00 0.00 0.00 83 1005.7
20260505203841 56 254 3.5 12.2 0.00 0.00 0.00 82 1005.9
20260505203337 56 236 1.7 7.8 0.00 0.00 0.00 82 1005.8
20260505202907 56 236 1.7 7.8 0.00 0.00 0.00 81 1005.7
20260505202341 57 236 2.6 11.3 0.00 0.00 0.00 80 1005.9
20260505201841 57 242 3.5 13.0 0.00 0.00 0.00 80 1005.7
20260505201350 57 219 5.2 9.6 0.00 0.00 0.00 81 1005.8
20260505200849 57 236 4.3 11.3 0.00 0.00 0.00 81 1005.7
20260505200345 57 252 3.5 14.8 0.00 0.00 0.00 81 1005.7
20260505195840 58 146 6.1 16.5 0.00 0.00 0.00 80 1005.8
20260505195357 58 227 5.2 16.5 0.00 0.00 0.00 80 1005.7
20260505194844 58 202 1.7 14.8 0.00 0.00 0.00 79 1005.7
20260505194339 59 225 3.5 19.1 0.00 0.00 0.00 78 1005.8
20260505193843 59 340 7.8 19.1 0.00 0.00 0.00 78 1005.7
20260505193413 60 238 4.3 10.4 0.00 0.00 0.00 78 1005.5
20260505192842 60 118 3.5 10.4 0.00 0.00 0.00 78 1005.4
20260505192335 59 295 4.3 13.0 0.00 0.00 0.00 77 1005.2
20260505191839 59 264 6.1 13.0 0.00 0.00 0.00 78 1005.5
20260505191341 59 265 4.3 13.0 0.00 0.00 0.00 77 1005.6
20260505190338 59 232 4.3 15.6 0.00 0.00 0.00 77 1005.7
20260505185839 59 215 5.2 15.6 0.00 0.00 0.00 77 1005.7
20260505185339 60 276 5.2 14.8 0.00 0.00 0.00 78 1005.7
20260505184845 60 200 7.0 14.8 0.00 0.00 0.00 77 1005.8
20260505184341 60 203 5.2 9.6 0.00 0.00 0.00 78 1005.7
20260505183845 59 215 4.3 10.4 0.00 0.00 0.00 79 1005.6
20260505183341 58 304 5.2 10.4 0.00 0.00 0.00 77 1005.5
20260505182835 59 230 3.5 8.7 0.00 0.00 0.00 77 1005.6
20260505182352 59 240 4.3 11.3 0.00 0.00 0.00 76 1005.5
20260505181849 60 210 3.5 12.2 0.00 0.00 0.00 75 1005.4
20260505181345 60 227 6.1 12.2 0.00 0.00 0.00 76 1005.1
20260505180839 60 221 3.5 10.4 0.00 0.00 0.00 76 1005.0
20260505180332 59 304 4.3 15.6 0.00 0.00 0.00 77 1005.0
20260505175844 59 249 5.2 15.6 0.00 0.00 0.00 76 1005.0
20260505175341 59 255 5.2 9.6 0.00 0.00 0.00 76 1005.0
20260505174855 59 225 5.2 10.4 0.00 0.00 0.00 76 1005.0
20260505174339 59 241 5.2 10.4 0.00 0.00 0.00 76 1005.0
20260505173905 59 223 3.5 8.7 0.00 0.00 0.00 76 1004.9
20260505173349 59 234 3.5 15.6 0.00 0.00 0.00 76 1005.0
20260505172851 59 45 5.2 15.6 0.00 0.00 0.00 75 1004.9
20260505172350 60 221 5.2 13.9 0.00 0.00 0.00 74 1005.2
20260505171838 61 12 2.6 9.6 0.00 0.00 0.00 72 1005.1
20260505171342 62 103 4.3 7.8 0.00 0.00 0.00 71 1005.0
20260505170839 63 288 2.6 13.9 0.00 0.00 0.00 69 1004.9
20260505170333 64 252 7.0 13.9 0.00 0.00 0.00 67 1004.7
20260505165848 65 181 4.3 15.6 0.00 0.00 0.00 68 1004.7
20260505165341 64 254 7.0 15.6 0.00 0.00 0.00 69 1004.6
20260505164838 62 217 4.3 12.2 0.00 0.00 0.00 71 1004.6
20260505164335 61 220 5.2 12.2 0.00 0.00 0.00 72 1004.4
20260505163913 60 227 4.3 16.5 0.00 0.00 0.00 73 1004.4
20260505163345 59 259 7.0 16.5 0.00 0.00 0.00 74 1004.3
20260505162904 59 211 5.2 12.2 0.00 0.00 0.00 74 1004.3
20260505162339 59 207 6.1 12.2 0.00 0.00 0.00 73 1004.6
20260505161839 60 236 4.3 13.9 0.00 0.00 0.00 73 1004.5
20260505161341 60 217 4.3 9.6 0.00 0.00 0.00 72 1004.7
20260505160834 61 250 5.2 12.2 0.00 0.00 0.00 70 1004.3
20260505160332 62 229 5.2 12.2 0.00 0.00 0.00 68 1004.3
20260505153341 65 259 4.3 19.1 0.00 0.00 0.00 66 1004.0
20260505152859 65 245 7.0 13.0 0.00 0.00 0.00 64 1003.9
20260505152416 65 204 5.2 17.4 0.00 0.00 0.00 64 1003.9
20260505151835 66 246 7.0 17.4 0.00 0.00 0.00 62 1003.5
20260505151345 65 238 6.1 13.9 0.00 0.00 0.00 66 1003.5
20260505150905 65 230 7.8 13.9 0.00 0.00 0.00 66 1003.3
20260505150414 65 274 6.1 13.0 0.00 0.00 0.00 65 1003.2
20260505140346 65 221 5.2 15.6 0.00 0.00 0.00 68 1003.3
20260505124853 64 244 5.2 14.8 0.00 0.00 0.00 69 1002.5
20260505124412 64 265 6.1 14.8 0.00 0.00 0.00 68 1002.5
20260505123851 64 219 4.3 14.8 0.00 0.00 0.00 71 1002.5
20260505123404 64 109 3.5 17.4 0.00 0.00 0.00 69 1002.4
20260505122835 63 213 4.3 17.4 0.00 0.00 0.00 70 1002.5
20260505122405 63 184 5.2 13.9 0.00 0.00 0.00 71 1002.5
20260505121841 63 129 4.3 12.2 0.00 0.00 0.00 71 1002.5
20260505121339 62 251 5.2 12.2 0.00 0.00 0.00 70 1002.5
20260505120901 62 202 4.3 10.4 0.00 0.00 0.00 71 1002.4
20260505120331 62 181 5.2 9.6 0.00 0.00 0.00 71 1002.5
20260505115838 62 207 4.3 8.7 0.00 0.00 0.00 71 1002.3
20260505115339 63 202 5.2 8.7 0.00 0.00 0.00 71 1002.2
20260505114837 63 238 3.5 9.6 0.00 0.00 0.00 70 1002.2
20260505114338 63 221 3.5 12.2 0.00 0.00 0.00 69 1002.2
20260505113838 64 254 5.2 17.4 0.00 0.00 0.00 69 1002.0
20260505113352 63 286 7.0 18.2 0.00 0.00 0.00 69 1002.1
20260505112842 63 360 4.3 18.2 0.00 0.00 0.00 70 1002.2
20260505112337 62 294 2.6 13.0 0.00 0.00 0.00 72 1002.1
20260505111835 62 249 4.3 14.8 0.00 0.00 0.00 72 1002.1
20260505111336 62 268 5.2 14.8 0.00 0.00 0.00 72 1002.1
20260505110835 61 227 5.2 13.0 0.00 0.00 0.00 72 1002.0
20260505110334 61 265 4.3 9.6 0.00 0.00 0.00 73 1001.8
20260505101838 59 178 3.5 7.0 0.00 0.00 0.00 78 1001.4
20260505101341 59 201 2.6 13.9 0.00 0.00 0.00 79 1001.4
20260505100839 58 205 2.6 8.7 0.00 0.00 0.00 80 1001.4
20260505100353 58 209 2.6 7.0 0.00 0.00 0.00 80 1001.4
20260505095900 58 227 2.6 7.0 0.00 0.00 0.00 80 1001.4
20260505095335 58 205 2.6 7.0 0.00 0.00 0.00 80 1001.5
20260505094848 58 212 2.6 5.2 0.00 0.00 0.00 80 1001.4
20260505094349 58 201 2.6 6.1 0.00 0.00 0.00 80 1001.4
20260505093906 58 348 2.6 7.8 0.00 0.00 0.00 80 1001.3
20260505093343 58 210 2.6 8.7 0.00 0.00 0.00 80 1001.3
20260505092844 58 196 2.6 8.7 0.00 0.00 0.00 81 1001.3
20260505092344 58 249 1.7 9.6 0.00 0.00 0.00 80 1001.4
20260505091852 58 179 4.3 9.6 0.00 0.00 0.00 80 1001.3
20260505091338 58 214 2.6 7.8 0.00 0.00 0.00 80 1001.3
20260505090840 59 175 2.6 7.8 0.00 0.00 0.00 79 1001.3
20260505090337 58 227 1.7 8.7 0.00 0.00 0.00 80 1001.3
20260505085850 58 147 1.7 8.7 0.00 0.00 0.00 80 1001.2
20260505085352 58 150 2.6 7.0 0.00 0.00 0.00 80 1001.3
20260505084835 58 208 2.6 6.1 0.00 0.00 0.00 80 1001.4
20260505084334 58 238 1.7 8.7 0.00 0.00 0.00 80 1001.4
20260505083837 58 248 2.6 8.7 0.00 0.00 0.00 81 1001.4
20260505083342 58 167 1.7 3.5 0.00 0.00 0.00 80 1001.4
20260505082856 58 197 1.7 7.0 0.00 0.00 0.00 81 1001.6
20260505082333 59 275 1.7 11.3 0.00 0.00 0.00 80 1001.5
20260505081835 59 238 3.5 11.3 0.00 0.00 0.00 80 1001.5
20260505081341 59 130 2.6 11.3 0.00 0.00 0.00 80 1001.6
20260505080841 59 198 3.5 11.3 0.00 0.00 0.00 80 1001.7
20260505080339 59 219 6.1 13.9 0.00 0.00 0.00 79 1001.7
20260505075850 60 222 7.8 13.9 0.00 0.00 0.00 77 1001.6
20260505075346 59 263 3.5 13.9 0.00 0.00 0.00 76 1001.4
20260505074837 59 268 3.5 12.2 0.00 0.00 0.00 77 1001.5
20260505074355 59 189 4.3 12.2 0.00 0.00 0.00 77 1001.5
20260505073854 58 343 2.6 10.4 0.00 0.00 0.00 78 1001.4
20260505073350 58 240 4.3 10.4 0.00 0.00 0.00 78 1001.4
20260505072841 58 226 3.5 9.6 0.00 0.00 0.00 79 1001.3
20260505072341 58 178 2.6 8.7 0.00 0.00 0.00 79 1001.3
20260505071837 58 193 2.6 8.7 0.00 0.00 0.00 80 1001.5
20260505071350 58 261 2.6 8.7 0.00 0.00 0.00 81 1001.6
20260505070913 58 225 3.5 8.7 0.00 0.00 0.00 82 1001.6
20260505070347 57 207 2.6 9.6 0.00 0.00 0.00 82 1001.7
20260505065849 57 171 1.7 4.3 0.00 0.00 0.00 83 1001.7
20260505065335 57 213 1.7 3.5 0.00 0.00 0.00 83 1001.7
20260505064846 57 269 1.7 6.1 0.00 0.00 0.00 83 1001.9
20260505064347 57 123 2.6 6.1 0.00 0.00 0.00 84 1002.0
20260505063842 57 194 1.7 6.1 0.00 0.00 0.00 84 1002.0
20260505063338 57 202 0.9 6.1 0.00 0.00 0.00 84 1002.3
20260505062836 57 263 1.7 7.0 0.00 0.00 0.00 83 1002.4
20260505062336 57 216 2.6 6.1 0.00 0.00 0.00 83 1002.2
20260505061900 57 233 1.7 3.5 0.00 0.00 0.00 82 1002.7
20260505061347 57 236 0.9 1.7 0.00 0.00 0.00 82 1002.7
20260505060838 57 236 0.0 1.7 0.00 0.00 0.00 81 1002.7
20260505060337 58 236 0.0 2.6 0.00 0.00 0.00 81 1002.8
20260505055841 58 236 0.9 2.6 0.00 0.00 0.00 80 1002.8
20260505055353 58 283 0.9 2.6 0.00 0.00 0.00 80 1002.8
20260505054838 59 320 0.9 6.1 0.00 0.00 0.00 79 1003.0
20260505054349 59 227 1.7 8.7 0.00 0.00 0.00 78 1002.9
20260505053852 59 259 4.3 8.7 0.00 0.00 0.00 79 1002.8
20260505053343 59 255 2.6 10.4 0.00 0.00 0.00 79 1002.7
20260505052903 59 256 2.6 10.4 0.00 0.00 0.00 78 1002.7
20260505052334 59 257 3.5 6.1 0.00 0.00 0.00 77 1002.7
20260505051842 59 231 1.7 8.7 0.00 0.00 0.00 77 1002.8
20260505051400 60 205 4.3 13.9 0.00 0.00 0.00 76 1002.9
20260505050857 60 212 4.3 9.6 0.00 0.00 0.00 74 1003.0
20260505050336 60 230 3.5 8.7 0.00 0.00 0.00 73 1003.1
20260505041342 59 205 2.6 8.7 0.00 0.00 0.00 76 1002.6
20260505040834 59 189 2.6 8.7 0.00 0.00 0.00 76 1002.6
20260505040336 59 169 4.3 8.7 0.00 0.00 0.00 76 1002.7
20260505035847 59 202 1.7 6.1 0.00 0.00 0.00 76 1002.5
20260505035401 59 286 0.9 7.0 0.00 0.00 0.00 77 1002.4
20260505034835 58 148 2.6 7.0 0.00 0.00 0.00 77 1002.6
20260505034403 58 128 1.7 5.2 0.00 0.00 0.00 77 1002.5
20260505033840 58 295 1.7 8.7 0.00 0.00 0.00 77 1002.6
20260505033401 59 146 2.6 7.0 0.00 0.00 0.00 76 1002.5
20260505032846 59 165 3.5 9.6 0.00 0.00 0.00 76 1002.6
20260505032338 59 157 3.5 9.6 0.00 0.00 0.00 75 1002.6
20260505031850 59 187 2.6 7.8 0.00 0.00 0.00 75 1002.8
20260505031346 59 219 2.6 6.1 0.00 0.00 0.00 74 1002.8
20260505030847 59 114 0.9 7.0 0.00 0.00 0.00 74 1002.8
20260505030342 59 226 1.7 7.0 0.00 0.00 0.00 73 1002.8
20260505025845 59 173 1.7 5.2 0.00 0.00 0.00 73 1002.8
20260505025404 59 231 2.6 8.7 0.00 0.00 0.00 72 1002.9
20260505024856 59 188 2.6 8.7 0.00 0.00 0.00 72 1003.1
20260505024406 59 185 1.7 10.4 0.00 0.00 0.00 72 1003.1
20260505023903 59 214 3.5 10.4 0.00 0.00 0.00 72 1003.1
20260505023336 60 138 1.7 5.2 0.00 0.00 0.00 71 1003.0
20260505022848 60 166 2.6 7.0 0.00 0.00 0.00 70 1003.1
20260505022343 60 192 0.9 8.7 0.00 0.00 0.00 69 1003.2
20260505021839 60 119 3.5 8.7 0.00 0.00 0.00 67 1003.3